Flag for U.S.A. Weather past 2 weeks in New Bedford, Massachusetts, U.S.A.

Now
73 °F

Sunny.


Feels Like: 70 °F
Forecast: 67 / 86 °F
Wind: 5 mph from West

Location: New Bedford Regional Airport

Current Time: Jul 31, 2015 at 7:38:49 AM

Latest Report: Jul 31, 2015 at 6:53 AM


Visibility: 10 mi

Pressure: 29.80 "Hg

Humidity: 94%

Dew point: 71 °F

Location of New BedfordLocation

Historic Weather in New Bedford — Graph

°F

New Bedford temperature yesterday

Maximum temperature yesterday: 84 °F (at 10:00 AM)
Minimum temperature yesterday: 69 °F (at 1:53 AM)
Average temperature yesterday: 77 °F

Past Weeks' High & Low Weather Summary

 TemperatureHumidityPressure
High93 °F (Jul 20, 1:53 PM)100% (Jul 28, 6:53 AM)30.11 "Hg (Jul 28, 6:53 AM)
Low53 °F (Jul 17, 3:53 AM)32% (Jul 22, 1:53 PM)29.54 "Hg (Jul 21, 6:53 PM)
Average73 °F76%29.88 "Hg
* Reported Jul 16 5:53 AM — Jul 31 5:53 AM, New Bedford, Weather by CustomWeather, © 2015

Note: Actual official high and low records may vary slightly from our data, if they occured in-between our weather recording intervals... More about our weather records

Advertising

New Bedford weather history for previous 24 hours

 ConditionsComfort  
Time TempWeatherWind HumidityBarometerVisibility
5:53 AM
Fri, Jul 31
71 °FFog.5 mph93%29.79 "Hg6 mi
4:53 AM73 °FPassing clouds.3 mph94%29.78 "Hg7 mi
3:53 AM73 °FMostly cloudy.3 mph94%29.77 "Hg7 mi
2:53 AM73 °FFog.3 mph97%29.78 "Hg6 mi
2:02 AM73 °FMostly cloudy.5 mph97%29.80 "Hg8 mi
1:53 AM73 °FLow clouds.5 mph97%29.79 "Hg7 mi
12:53 AM74 °FLow clouds.6 mph97%29.80 "Hg9 mi
11:53 PM
Thu, Jul 30
74 °FPartly cloudy.7 mph97%29.80 "Hg10 mi
10:53 PM73 °FPartly cloudy.6 mph97%29.81 "Hg10 mi
9:53 PM73 °FPassing clouds.6 mph94%29.82 "Hg10 mi
8:53 PM73 °FLight rain. Partly sunny.10 mph90%29.81 "Hg8 mi
7:53 PM76 °FLight rain. Cloudy.13 mph91%29.82 "Hg10 mi
6:53 PM77 °FScattered clouds.13 mph85%29.82 "Hg10 mi
5:53 PM78 °FScattered clouds.18 mph82%29.81 "Hg10 mi
4:53 PM80 °FPartly sunny.16 mph76%29.81 "Hg10 mi
3:55 PM80 °FScattered clouds.20 mph76%29.82 "Hg10 mi
2:59 PM82 °FPartly sunny.22 mph77%29.83 "Hg10 mi
1:53 PM84 °FPassing clouds.17 mph72%29.85 "Hg10 mi
12:53 PM83 °FPartly sunny.16 mph74%29.87 "Hg10 mi
11:53 AM83 °FPassing clouds.14 mph74%29.87 "Hg10 mi
11:00 AM84 °FPassing clouds.13 mph72%29.88 "Hg10 mi
10:00 AM84 °FPassing clouds.9 mph72%29.88 "Hg10 mi
8:53 AM80 °FSunny.9 mph81%29.89 "Hg10 mi
7:53 AM77 °FPartly sunny.9 mph90%29.89 "Hg8 mi
Weather by CustomWeather, © 2015

See weather overviewHow to use our weather pages